Find Starlink 34061

NORAD ID: 63876 Int'l Des: 2025-094 Owner: SPXS Country: US Constellation: starlink decayed
LEOCIRCULAR
Vis

Historical Track — May 8, 2026

3D地球を読み込み中...

Starlink 34061について

説明を読み込み中...

高度履歴

Loading altitude history...

軌道要素

1 63876U 25094N 26128.43409094 .19143507 42963-5 21786-2 0 9997
2 63876 69.9925 78.8764 0012495 224.1035 135.9199 16.36429723 56270
Epoch: May 8, 2026 • Age: 148 hours

現在のステータス

Position data unavailable
打ち上げ日 May 10, 2025
運用期間 1 years
落下予定日 May 8, 2026
タイプ internet

技術仕様

分類 Payload
質量 575.00 kg
乾燥質量 530.00 kg
総質量 575.00 kg
長さ 0.30 m
直径 4.10 m
スパン 29.00 m
形状 Box + pan
製造者 SPXS
バスタイプ Starlink V2MO
フェーズステータス Reentered
所有者/国 SPXS/US

Most Searched